Home   Weather   Skien   Past weeks
Flag for Norway

Past Weather in Skien, Norway — Yesterday and Last 2 Weeks

Now
45 °F

Drizzle. Fog.


Feels Like: 38 °F
Forecast: 47 / 44 °F
Wind: 14 mph from North

Location: Torp

Current Time: Oct 15, 2019 at 9:25:42 pm

Latest Report: Oct 15, 2019 at 8:50 pm


Visibility: 2 mi

Pressure: 29.80 "Hg

Humidity: 100%

Dew Point: 45 °F

Location of SkienLocation

Past Weather in Skien — Graph

°F

Skien Temperature Yesterday

Maximum temperature yesterday: 50 °F (at 1:50 pm)
Minimum temperature yesterday: 41 °F (at 9:50 pm)
Average temperature yesterday: 46 °F

High & Low Weather Summary for the Past Weeks

 TemperatureHumidityPressure
High57 °F (Oct 1, 4:20 pm)100% (Oct 2, 6:50 am)30.30 "Hg (Oct 2, 6:50 am)
Low27 °F (Oct 7, 6:50 am)36% (Oct 1, 3:20 pm)29.24 "Hg (Oct 11, 8:50 pm)
Average42 °F86%29.72 "Hg
* Reported Sep 30 8:20 pm — Oct 15 8:20 pm, Skien. Weather by CustomWeather, © 2019

Note: Actual official high and low records may vary slightly from our data, if they occured in-between our weather recording intervals... More about our weather records

Advertising

Skien Weather History for the Previous 24 Hours

Scroll right to see more
 ConditionsComfort  
Time TempWeatherWind HumidityBarometerVisibility
8:20 pm
Tue, Oct 15
45 °FDrizzle. Fog.13 mph100%29.80 "Hg2 mi
7:50 pm45 °FDrizzle. Fog.12 mph100%29.80 "Hg2 mi
7:20 pm45 °FLight rain. Fog.12 mph100%29.80 "Hg2 mi
6:50 pm45 °FLight rain. Fog.13 mph93%29.80 "Hg2 mi
6:20 pm45 °FDrizzle. Fog.13 mph100%29.80 "Hg2 mi
5:50 pm45 °FDrizzle. Fog.12 mph100%29.80 "Hg2 mi
5:20 pm43 °FDrizzle. Fog.12 mph100%29.80 "Hg3 mi
4:50 pm43 °FDrizzle. Low clouds.10 mph100%29.83 "Hg2 mi
4:20 pm43 °FDrizzle. Fog.12 mph100%29.83 "Hg2 mi
3:50 pm43 °FDrizzle. Dense fog.12 mph100%29.86 "Hg2 mi
3:20 pm45 °FDrizzle. Fog.12 mph100%29.86 "Hg2 mi
2:50 pm45 °FLight rain. Fog.12 mph100%29.86 "Hg2 mi
2:20 pm45 °FDrizzle. Low clouds.10 mph100%29.86 "Hg3 mi
1:50 pm45 °FLight rain. Mostly cloudy.12 mph100%29.86 "HgN/A
1:20 pm45 °FLight rain. Partly sunny.10 mph100%29.89 "HgN/A
12:50 pm45 °FLight rain. Partly sunny.13 mph100%29.89 "Hg6 mi
12:20 pm45 °FRain. Low clouds.10 mph100%29.92 "Hg3 mi
11:50 am45 °FRain. Fog.10 mph100%29.92 "Hg2 mi
11:20 am45 °FLight rain. Low clouds.10 mph100%29.95 "Hg6 mi
10:50 am45 °FRain. Low clouds.9 mph100%29.95 "Hg4 mi
10:20 am45 °FRain. Partly sunny.10 mph100%29.95 "Hg4 mi
9:50 am45 °FRain. Partly sunny.7 mph100%29.95 "Hg3 mi
9:20 am45 °FRain. Broken clouds.8 mph100%29.95 "Hg4 mi
8:50 am45 °FRain. Partly sunny.7 mph100%29.95 "Hg5 mi
8:20 am45 °FRain. Partly sunny.6 mph100%29.95 "HgN/A
7:50 am45 °FLight rain. Overcast.7 mph93%29.95 "HgN/A
7:20 am46 °FPassing clouds.6 mph87%29.95 "HgN/A
6:50 am46 °FPartly cloudy.6 mph87%29.95 "HgN/A
6:20 am45 °FPartly cloudy.5 mph93%29.95 "HgN/A
5:50 am45 °FPassing clouds.3 mph100%29.98 "HgN/A
5:20 am45 °FOvercast.5 mph100%29.98 "HgN/A
4:50 am45 °FOvercast.2 mph100%29.98 "HgN/A
4:20 am45 °FOvercast.3 mph100%29.98 "HgN/A
3:50 am46 °FPassing clouds.5 mph93%30.01 "HgN/A
3:20 am46 °FMostly cloudy.5 mph93%30.01 "HgN/A
2:50 am46 °FMostly cloudy.3 mph93%30.01 "HgN/A
2:20 am46 °FOvercast.3 mph93%30.01 "HgN/A
1:50 am46 °FOvercast.3 mph93%30.01 "HgN/A
1:20 am45 °FOvercast.2 mph100%30.01 "HgN/A
12:50 am45 °FOvercast.1 mph100%30.01 "HgN/A
12:20 am45 °FOvercast.No wind100%30.01 "HgN/A
11:50 pm
Mon, Oct 14
45 °FOvercast.2 mph100%30.01 "HgN/A
11:20 pm45 °FOvercast.No wind93%30.01 "HgN/A
10:50 pm45 °FPassing clouds.3 mph93%30.01 "HgN/A
10:20 pm43 °FPassing clouds.No wind100%30.01 "HgN/A
9:50 pm41 °FPassing clouds.1 mph100%29.98 "HgN/A
9:20 pm43 °FClear.No wind100%29.98 "Hg10 mi
Weather by CustomWeather, © 2019

See weather overview